Pampa, TX

5:40 PM CDT on April 29, 2017 (GMT -0500)
Perry Lefors

Weather History for KPPA - October, 2012

Change the Weather History Date:

Thursday, October 11, 2012

  Actual Average Record
Temperature  
Mean Temperature 63 °F -  
Max Temperature 82 °F 73 °F 94 °F (2016)
Min Temperature 44 °F 46 °F 36 °F (1977)
Degree Days  
Heating Degree Days 2    
Growing Degree Days 13 (Base 50)    
Moisture  
Dew Point 51 °F    
Average Humidity 69    
Maximum Humidity 93    
Minimum Humidity 37    
Precipitation  
Precipitation 0.00 in - - ()
Sea Level Pressure  
Sea Level Pressure 30.08 in    
Wind  
Wind Speed 13 mph (SSW)    
Max Wind Speed 23 mph    
Max Gust Speed 29 mph    
Visibility 10 miles    
Events      
Averages and records for this station are not official NWS values.
T = Trace of Precipitation, MM = Missing Value Source: NWS Daily Summary

Daily Weather History Graph

Daily Weather History Graph

Search for Another Location

Airport or City:

Trip Planner

Search our weather history database for the weather conditions in past years. The results will help you decide how hot, cold, wet, or windy it might be!

Date:

Astronomy

Oct. 11, 2012 Rise Set
Actual Time 7:47 AM CDT 7:13 PM CDT
Civil Twilight 7:21 AM CDT 7:38 PM CDT
Nautical Twilight 6:52 AM CDT 8:08 PM CDT
Astronomical Twilight 6:22 AM CDT 8:37 PM CDT
Moon 3:35 AM CDT (10/11) 4:44 PM CDT (10/11)
Length of Visible Light 12h 16m
Length of Day
11h 25m
Waning Crescent, 18% of the Moon is Illuminated
Oct 11
Waning Crescent
Oct 15
New
Oct 21
First Quarter
Oct 29
Full
Nov 6
Last Quarter

Hourly Weather History & Observations

Time (CDT) Temp. Windchill Dew Point Humidity Pressure Visibility Wind Dir Wind Speed Gust Speed Precip Events Conditions
12:15 AM 50.0 °F - 42.8 °F 76% 30.12 in 10.0 mi South 11.5 mph - N/A   Scattered Clouds
12:35 AM 48.2 °F - 42.8 °F 82% 30.12 in 10.0 mi South 11.5 mph - N/A   Clear
12:55 AM 46.4 °F 40.7 °F 42.8 °F 87% 30.12 in 10.0 mi South 12.7 mph - N/A   Clear
1:15 AM 46.4 °F 40.7 °F 42.8 °F 87% 30.11 in 10.0 mi South 12.7 mph - N/A   Clear
1:35 AM 46.4 °F 40.1 °F 42.8 °F 87% 30.11 in 10.0 mi South 15.0 mph - N/A   Clear
1:55 AM 46.4 °F 41.1 °F 42.8 °F 87% 30.11 in 10.0 mi South 11.5 mph - N/A   Clear
2:15 AM 46.4 °F 41.1 °F 42.8 °F 87% 30.11 in 10.0 mi South 11.5 mph - N/A   Clear
2:35 AM 46.4 °F 40.1 °F 42.8 °F 87% 30.10 in 10.0 mi South 15.0 mph - N/A   Clear
2:55 AM 46.4 °F 39.5 °F 42.8 °F 87% 30.10 in 10.0 mi South 17.3 mph - N/A   Clear
3:15 AM 46.4 °F 39.8 °F 42.8 °F 87% 30.10 in 10.0 mi South 16.1 mph - N/A   Clear
3:55 AM 44.6 °F 38.4 °F 42.8 °F 93% 30.09 in 10.0 mi South 12.7 mph - N/A   Clear
4:15 AM 44.6 °F 38.4 °F 42.8 °F 93% 30.09 in 10.0 mi South 12.7 mph - N/A   Clear
4:35 AM 44.6 °F 38.8 °F 42.8 °F 93% 30.08 in 10.0 mi SSW 11.5 mph - N/A   Clear
4:55 AM 44.6 °F 39.2 °F 42.8 °F 93% 30.07 in 10.0 mi South 10.4 mph - N/A   Clear
5:15 AM 44.6 °F 38.8 °F 42.8 °F 93% 30.07 in 7.0 mi SSW 11.5 mph - N/A   Scattered Clouds
5:35 AM 50.0 °F - 46.4 °F 87% 30.07 in 10.0 mi SW 9.2 mph - N/A   Overcast
5:55 AM 51.8 °F - 48.2 °F 88% 30.07 in 10.0 mi SW 10.4 mph - N/A   Overcast
6:15 AM 53.6 °F - 48.2 °F 82% 30.07 in 10.0 mi SSW 10.4 mph - N/A   Overcast
6:35 AM 50.0 °F - 46.4 °F 87% 30.08 in 7.0 mi SSW 6.9 mph - N/A   Scattered Clouds
6:55 AM 50.0 °F - 44.6 °F 82% 30.09 in 7.0 mi SSW 6.9 mph - N/A   Scattered Clouds
7:15 AM 50.0 °F - 46.4 °F 87% 30.09 in 10.0 mi South 8.1 mph - N/A   Overcast
7:55 AM 48.2 °F - 46.4 °F 93% 30.09 in 7.0 mi South 10.4 mph - N/A   Scattered Clouds
8:15 AM 50.0 °F - 46.4 °F 87% 30.10 in 5.0 mi SSW 9.2 mph - N/A   Clear
8:35 AM 50.0 °F - 46.4 °F 87% 30.10 in 7.0 mi SSW 9.2 mph - N/A   Clear
8:55 AM 53.6 °F - 50.0 °F 88% 30.11 in 7.0 mi SSW 12.7 mph - N/A   Clear
9:15 AM 55.4 °F - 50.0 °F 82% 30.12 in 7.0 mi SSW 12.7 mph - N/A   Clear
9:35 AM 57.2 °F - 50.0 °F 77% 30.12 in 7.0 mi SSW 12.7 mph - N/A   Clear
9:55 AM 60.8 °F - 51.8 °F 72% 30.12 in 7.0 mi SSW 16.1 mph - N/A   Clear
10:15 AM 60.8 °F - 51.8 °F 72% 30.12 in 10.0 mi SSW 16.1 mph - N/A   Clear
10:35 AM 62.6 °F - 51.8 °F 68% 30.12 in 10.0 mi SW 15.0 mph 20.7 mph N/A   Clear
11:15 AM 69.8 °F - 55.4 °F 60% 30.12 in 10.0 mi SW 18.4 mph 21.9 mph N/A   Clear
11:35 AM 71.6 °F - 55.4 °F 57% 30.12 in 10.0 mi WSW 21.9 mph 27.6 mph N/A   Clear
11:55 AM 73.4 °F - 55.4 °F 53% 30.11 in 10.0 mi WSW 19.6 mph 27.6 mph N/A   Clear
12:15 PM 73.4 °F - 55.4 °F 53% 30.10 in 10.0 mi WSW 23.0 mph 28.8 mph N/A   Clear
12:55 PM 75.2 °F - 55.4 °F 50% 30.09 in 10.0 mi WSW 16.1 mph 21.9 mph N/A   Clear
1:15 PM 77.0 °F - 55.4 °F 47% 30.08 in 10.0 mi SW 17.3 mph 24.2 mph N/A   Clear
1:35 PM 77.0 °F - 55.4 °F 47% 30.07 in 10.0 mi SW 20.7 mph 26.5 mph N/A   Scattered Clouds
1:55 PM 77.0 °F - 55.4 °F 47% 30.06 in 10.0 mi SW 20.7 mph 28.8 mph N/A   Scattered Clouds
2:15 PM 78.8 °F - 55.4 °F 44% 30.05 in 10.0 mi SW 17.3 mph 27.6 mph N/A   Clear
3:15 PM 80.6 °F - 55.4 °F 42% 30.03 in 10.0 mi SSW 20.7 mph 27.6 mph N/A   Clear
3:55 PM 80.6 °F - 53.6 °F 39% 30.03 in 10.0 mi SSW 17.3 mph 25.3 mph N/A   Clear
4:15 PM 82.4 °F - 53.6 °F 37% 30.03 in 10.0 mi SSW 19.6 mph 28.8 mph N/A   Clear
4:35 PM 80.6 °F - 53.6 °F 39% 30.03 in 10.0 mi SW 16.1 mph 25.3 mph N/A   Clear
4:55 PM 80.6 °F - 53.6 °F 39% 30.03 in 10.0 mi SSW 16.1 mph 24.2 mph N/A   Clear
5:15 PM 80.6 °F - 55.4 °F 42% 30.02 in 10.0 mi SSW 16.1 mph 23.0 mph N/A   Clear
5:55 PM 80.6 °F - 55.4 °F 42% 30.02 in 10.0 mi South 17.3 mph - N/A   Clear
6:15 PM 78.8 °F - 55.4 °F 44% 30.03 in 10.0 mi SSW 13.8 mph - N/A   Clear
6:35 PM 78.8 °F - 55.4 °F 44% 30.04 in 10.0 mi South 16.1 mph 23.0 mph N/A   Clear
6:55 PM 77.0 °F - 55.4 °F 47% 30.05 in 10.0 mi South 11.5 mph - N/A   Clear
7:15 PM 73.4 °F - 55.4 °F 53% 30.05 in 10.0 mi South 10.4 mph - N/A   Clear
7:35 PM 71.6 °F - 55.4 °F 57% 30.06 in 10.0 mi SSW 9.2 mph - N/A   Clear
7:55 PM 69.8 °F - 55.4 °F 60% 30.06 in 10.0 mi South 8.1 mph - N/A   Clear
8:15 PM 69.8 °F - 55.4 °F 60% 30.07 in 10.0 mi South 10.4 mph - N/A   Clear
8:35 PM 69.8 °F - 57.2 °F 64% 30.08 in 10.0 mi South 11.5 mph - N/A   Clear
8:55 PM 68.0 °F - 59.0 °F 73% 30.08 in 10.0 mi South 12.7 mph - N/A   Clear
9:15 PM 68.0 °F - 59.0 °F 73% 30.09 in 10.0 mi South 11.5 mph - N/A   Clear
9:35 PM 68.0 °F - 59.0 °F 73% 30.09 in 10.0 mi South 13.8 mph - N/A   Clear
9:55 PM 68.0 °F - 59.0 °F 73% 30.10 in 10.0 mi South 11.5 mph - N/A   Clear
10:15 PM 68.0 °F - 59.0 °F 73% 30.11 in 10.0 mi South 11.5 mph - N/A   Clear
10:55 PM 68.0 °F - 59.0 °F 73% 30.11 in 10.0 mi South 15.0 mph - N/A   Clear